KNZY

Naval Air Station North Island

Airport
ICAO code
KNZY
Summary
ICAO Region
NAM
ICAO Territory
Location

San Diego, California,

Coordinates
32° 41' 53" N , 117° 12' 16" W
KCC
Airport WX
Fog
Metar
KNZY 221552Z 00000KT 10SM FEW015 SCT200 13/09 A3022 RMK AO2 SLP233 T01330094 $

Description

Naval Air Station North Island, or NAS North Island, is located at the north end of the Coronado peninsula on San Diego Bay in San Diego, California. It is the home port to the aircraft compliment of several aircraft carriers of the United States Navy.

Climatology

Semi-arid or Mediterranean (Köppen climate classification BSh or Csa/Csb). It enjoys mild, sunny weather throughout the year. Since the San Diego area straddles areas of Mediterranean climate (Csa) to the north, and Semi-arid climate (BSh) to the south and east, the climate is often referred to as "Mediterranean" or "arid-mediterranean". Fog is common in May and June.

Runways

Designator Length Width Surface Rops
11/29 2286 91 PEM Yes/Yes
18/36 2438 61 PEM Yes/Yes

Airport map

Aerial View

SKYbrary Partners:

Safety knowledge contributed by: